Back to catalog

USA 200

AliveMilitaryHEO
NORAD 32706·PAYLOAD·🇺🇸 United States

Launched Mar 13, 2008 from Vandenberg Space Force Base

Loading…

Next Passes (next 24 hours)

TLE

FreshSource: Mike McCants

Epoch: Sep 14, 2026, 21:41 UTC

1 32706U 08010A   26257.90368145  .00000228  00000-0  00000-0 0    00
2 32706  63.4470 301.9510 7144328 268.9662  16.1203  2.00636144  5296

Track USA 200 in real time with AllMySat

Download on the App Store